Погода в Эль-Файюме

Египет     29°18′43″N   30°50′08″E
темп.,
°C
ветер,
м/с
пор.,
м/с
влажн.,
%
обл.,
%
осадки,
мм/ч
давл.,
гПа
погр.,
м
17 августа, ср
ср1723:00+28с811470 0.0 1009671
02:00+26с69600 0.0 1009502
05:00+24с47730 0.0 1009363
08:00+27с67600 0.0 1009727
11:00+33с56290 0.0 10081359
14:00+37ссз66190 0.0 10061839
17:00+37ссз67180 0.0 10052123
20:00+32ссз913320 0.0 1006555
18 августа, чт
чт1823:00+28с610480 0.0 1007511
02:00+25с58610 0.0 1006366
05:00+24с46720 0.0 1006204
08:00+27с45560 0.0 1007593
11:00+34ссз55280 0.0 10061262
14:00+38ссз55190 0.0 10041857
17:00+38ссз56180 0.0 10032256
20:00+33с813300 0.0 1004436
19 августа, пт
пт1923:00+30ссв610410 0.0 1005352
02:00+27с36520 0.0 1004155
05:00+26с34570 0.0 100590
08:00+29ссз22410 0.0 1006422
11:00+35зсз45260 0.0 10051337
14:00+40зсз56150 0.0 10032592
17:00+39сз66150 0.0 10032788
20:00+34ссз45240 0.0 100488
20 августа, сб
сб2023:00+30ссз36430 0.0 1005181
02:00+28ссз34530 0.0 100598
05:00+26сз34663 0.0 1006110
08:00+30сз34530 0.0 1007532
11:00+36зсз45280 0.0 10061273
14:00+40сз55170 0.0 10042791
17:00+40зсз56150 0.0 10033328
20:00+35сз711240 0.0 1005334
21 августа, вс
вс2123:00+30ссв47420 0.0 1006336
02:00+28ссв34570 0.0 1005138
05:00+26сз33620 0.0 100663
08:00+30сз34450 0.0 1006543
11:00+36сз45260 0.0 10051688
14:00+40зсз77160 0.0 10032879
17:00+39сз67170 0.0 10022837
20:00+33с711330 0.0 1004358